TimeMDT,TemperatureF,Dew PointF,Humidity,Sea Level PressureIn,VisibilityMPH,Wind Direction,Wind SpeedMPH,Gust SpeedMPH,PrecipitationIn,Events,Conditions,WindDirDegrees,DateUTC
12:02 AM,37.4,33.8,87,30.11,10.0,NW,12.7,-,N/A,,Overcast,310,2012-11-03 06:02:00
12:53 AM,36.0,33.1,89,30.17,10.0,NW,8.1,-,N/A,,Overcast,310,2012-11-03 06:53:00
1:53 AM,36.0,32.0,86,30.16,10.0,WNW,13.8,-,N/A,,Overcast,290,2012-11-03 07:53:00
2:21 AM,35.6,32.0,87,30.11,10.0,NW,11.5,-,N/A,,Overcast,310,2012-11-03 08:21:00
2:53 AM,36.0,32.0,86,30.16,10.0,WNW,10.4,-,N/A,,Overcast,300,2012-11-03 08:53:00
3:53 AM,35.1,30.9,85,30.16,10.0,WNW,6.9,-,N/A,,Overcast,300,2012-11-03 09:53:00
4:53 AM,35.1,30.9,85,30.17,10.0,WNW,3.5,-,N/A,,Overcast,290,2012-11-03 10:53:00
5:53 AM,36.0,32.0,86,30.19,10.0,WNW,5.8,-,N/A,,Overcast,290,2012-11-03 11:53:00
6:20 AM,35.6,32.0,87,30.14,10.0,WNW,8.1,-,N/A,,Overcast,300,2012-11-03 12:20:00
6:48 AM,35.6,32.0,87,30.14,10.0,WNW,6.9,-,N/A,,Overcast,300,2012-11-03 12:48:00
6:53 AM,36.0,32.0,86,30.19,10.0,NW,5.8,-,N/A,,Overcast,310,2012-11-03 12:53:00
7:21 AM,35.6,32.0,87,30.14,10.0,WNW,5.8,-,N/A,,Overcast,300,2012-11-03 13:21:00
7:53 AM,36.0,32.0,86,30.21,10.0,WNW,5.8,-,N/A,,Overcast,300,2012-11-03 13:53:00
8:53 AM,36.0,32.0,86,30.22,10.0,NW,9.2,-,N/A,,Overcast,320,2012-11-03 14:53:00
9:37 AM,35.6,32.0,87,30.16,10.0,North,5.8,-,N/A,,Overcast,10,2012-11-03 15:37:00
9:53 AM,36.0,32.0,86,30.23,9.0,North,4.6,-,N/A,,Overcast,360,2012-11-03 15:53:00
10:08 AM,35.6,32.0,87,30.16,8.0,North,3.5,-,N/A,,Overcast,10,2012-11-03 16:08:00
10:25 AM,35.6,32.0,87,30.16,9.0,NNE,4.6,-,N/A,,Overcast,30,2012-11-03 16:25:00
10:53 AM,36.0,32.0,86,30.23,6.0,North,5.8,-,N/A,,Overcast,10,2012-11-03 16:53:00
11:48 AM,35.6,32.0,87,30.17,3.0,NE,4.6,-,N/A,,Overcast,40,2012-11-03 17:48:00
11:53 AM,36.0,32.0,86,30.23,4.0,NNE,3.5,-,N/A,,Overcast,20,2012-11-03 17:53:00
12:13 PM,37.4,32.0,81,30.16,10.0,NNE,4.6,-,N/A,,Overcast,20,2012-11-03 18:13:00
12:53 PM,37.0,32.0,82,30.22,10.0,Calm,Calm,-,N/A,,Overcast,0,2012-11-03 18:53:00
1:21 PM,37.4,32.0,81,30.15,10.0,NE,5.8,-,N/A,,Overcast,50,2012-11-03 19:21:00
1:53 PM,39.0,32.0,76,30.21,10.0,NNE,6.9,-,N/A,,Overcast,20,2012-11-03 19:53:00
2:53 PM,37.9,32.0,79,30.21,10.0,NNW,4.6,-,N/A,,Overcast,340,2012-11-03 20:53:00
3:53 PM,37.0,30.9,79,30.21,10.0,NE,8.1,-,N/A,,Overcast,40,2012-11-03 21:53:00
4:53 PM,36.0,30.9,82,30.21,10.0,NE,8.1,-,N/A,,Overcast,50,2012-11-03 22:53:00
5:53 PM,35.1,30.0,82,30.21,10.0,ENE,9.2,-,N/A,,Overcast,60,2012-11-03 23:53:00
6:46 PM,33.8,30.2,87,30.16,10.0,ENE,9.2,-,N/A,,Overcast,60,2012-11-04 00:46:00
6:53 PM,34.0,30.0,85,30.23,10.0,ENE,8.1,-,N/A,,Overcast,70,2012-11-04 00:53:00
7:53 PM,33.1,28.9,85,30.22,10.0,ENE,8.1,-,N/A,,Overcast,70,2012-11-04 01:53:00
8:53 PM,33.1,28.9,85,30.22,9.0,East,8.1,-,N/A,,Overcast,90,2012-11-04 02:53:00
9:53 PM,32.0,30.0,92,30.22,6.0,East,5.8,-,N/A,,Overcast,100,2012-11-04 03:53:00
10:44 PM,32.0,28.4,87,30.14,6.0,SE,9.2,-,N/A,,Overcast,130,2012-11-04 04:44:00
10:53 PM,32.0,30.0,92,30.21,6.0,ESE,8.1,-,N/A,,Overcast,120,2012-11-04 04:53:00
11:53 PM,32.0,28.9,88,30.19,3.0,SE,9.2,-,N/A,,Overcast,130,2012-11-04 05:53:00